Brookings, SD

7:58 PM CST on November 18, 2017 (GMT -0600)
Brookings Municipal

Weather History for KBKX - January, 2013

Change the Weather History Date:

Monday, January 28, 2013

  Actual Average Record
Temperature  
Mean Temperature 32 °F -  
Max Temperature 35 °F 22 °F 39 °F (2008)
Min Temperature 30 °F 7 °F -18 °F (1997)
Degree Days  
Heating Degree Days 32    
Moisture  
Dew Point 33 °F    
Average Humidity 97    
Maximum Humidity 100    
Minimum Humidity 93    
Precipitation  
Precipitation 0.00 in - - ()
Sea Level Pressure  
Sea Level Pressure 29.75 in    
Wind  
Wind Speed 4 mph (South)    
Max Wind Speed 16 mph    
Max Gust Speed 20 mph    
Visibility 1 miles    
Events      
Averages and records for this station are not official NWS values.
T = Trace of Precipitation, MM = Missing Value Source: NWS Daily Summary

Daily Weather History Graph

Daily Weather History Graph

Search for Another Location

Airport or City:

Trip Planner

Search our weather history database for the weather conditions in past years. The results will help you decide how hot, cold, wet, or windy it might be!

Date:

Astronomy

Jan. 28, 2013 Rise Set
Actual Time 7:49 AM CST 5:31 PM CST
Civil Twilight 7:18 AM CST 6:02 PM CST
Nautical Twilight 6:43 AM CST 6:37 PM CST
Astronomical Twilight 6:09 AM CST 7:12 PM CST
Moon 7:34 PM CST (1/28) 8:10 AM CST (1/28)
Length of Visible Light 10h 44m
Length of Day
9h 42m
Full, 98% of the Moon is Illuminated
Jan 28
Full
Feb 3
Last Quarter
Feb 10
New
Feb 17
First Quarter
Feb 25
Full

Hourly Weather History & Observations

Time (CST) Temp. Windchill Dew Point Humidity Pressure Visibility Wind Dir Wind Speed Gust Speed Precip Events Conditions
12:15 AM 33.8 °F 29.6 °F 32.0 °F 93% 29.77 in 1.8 mi SSW 4.6 mph - N/A   Overcast
12:35 AM 32.0 °F 26.4 °F 32.0 °F 100% 29.78 in 1.0 mi SSW 5.8 mph - N/A   Overcast
12:55 AM 33.8 °F 28.6 °F 32.0 °F 93% 29.79 in 0.8 mi SSW 5.8 mph - N/A   Overcast
1:15 AM 33.8 °F 30.8 °F 32.0 °F 93% 29.78 in 0.8 mi SW 3.5 mph - N/A   Overcast
1:35 AM 33.8 °F 29.6 °F 32.0 °F 93% 29.78 in 0.5 mi South 4.6 mph - N/A   Overcast
1:55 AM 33.8 °F - 32.0 °F 93% 29.78 in 0.8 mi Calm Calm - N/A   Overcast
2:15 AM 33.8 °F 30.8 °F 32.0 °F 93% 29.78 in 0.8 mi SSW 3.5 mph - N/A   Overcast
2:35 AM 33.8 °F 30.8 °F 32.0 °F 93% 29.78 in 0.8 mi South 3.5 mph - N/A   Overcast
2:55 AM 33.8 °F 30.8 °F 32.0 °F 93% 29.78 in 0.8 mi South 3.5 mph - N/A   Overcast
3:15 AM 33.8 °F 30.8 °F 32.0 °F 93% 29.78 in 0.5 mi SSE 3.5 mph - N/A   Overcast
3:35 AM 33.8 °F 28.6 °F 33.8 °F 100% 29.79 in 0.8 mi South 5.8 mph - N/A   Overcast
3:55 AM 33.8 °F 29.6 °F 32.0 °F 93% 29.79 in 0.8 mi South 4.6 mph - N/A   Overcast
4:15 AM 33.8 °F 29.6 °F 33.8 °F 100% 29.80 in 0.8 mi South 4.6 mph - N/A   Overcast
4:35 AM 33.8 °F 28.6 °F 32.0 °F 93% 29.79 in 0.8 mi South 5.8 mph - N/A   Overcast
4:55 AM 33.8 °F 29.6 °F 32.0 °F 93% 29.80 in 0.8 mi SSW 4.6 mph - N/A   Overcast
5:15 AM 33.8 °F 28.6 °F 33.8 °F 100% 29.81 in 0.8 mi SW 5.8 mph - N/A   Overcast
5:55 AM 33.8 °F 29.6 °F 33.8 °F 100% 29.80 in 0.8 mi WSW 4.6 mph - N/A   Overcast
6:15 AM 33.8 °F 28.6 °F 33.8 °F 100% 29.80 in 1.0 mi SSW 5.8 mph - N/A   Overcast
6:35 AM 33.8 °F 28.6 °F 33.8 °F 100% 29.82 in 1.8 mi SSW 5.8 mph - N/A   Overcast
6:55 AM 33.8 °F 30.8 °F 33.8 °F 100% 29.81 in 0.8 mi WSW 3.5 mph - N/A   Overcast
7:15 AM 33.8 °F - 33.8 °F 100% 29.80 in 0.5 mi Calm Calm - N/A   Overcast
7:35 AM 33.8 °F 30.8 °F 33.8 °F 100% 29.81 in 0.5 mi SW 3.5 mph - N/A   Overcast
7:55 AM 33.8 °F - 33.8 °F 100% 29.81 in 0.5 mi Calm Calm - N/A   Overcast
8:15 AM 33.8 °F 30.8 °F 33.8 °F 100% 29.82 in 0.5 mi SSW 3.5 mph - N/A   Overcast
8:35 AM 33.8 °F 30.8 °F 33.8 °F 100% 29.83 in 0.2 mi South 3.5 mph - N/A   Overcast
8:55 AM 33.8 °F 30.8 °F 33.8 °F 100% 29.82 in 0.2 mi South 3.5 mph - N/A   Overcast
9:15 AM 33.8 °F 29.6 °F 32.0 °F 93% 29.82 in 0.2 mi SSW 4.6 mph - N/A   Overcast
9:35 AM 33.8 °F 29.6 °F 32.0 °F 93% 29.82 in 0.2 mi South 4.6 mph - N/A   Overcast
9:55 AM 33.8 °F - 33.8 °F 100% 29.81 in 0.2 mi Calm Calm - N/A   Overcast
10:15 AM 33.8 °F 29.6 °F 32.0 °F 93% 29.82 in 0.5 mi SSW 4.6 mph - N/A   Overcast
10:35 AM 33.8 °F 30.8 °F 33.8 °F 100% 29.82 in 0.2 mi SSW 3.5 mph - N/A   Overcast
11:15 AM 35.6 °F 31.7 °F 33.8 °F 93% 29.83 in 0.5 mi SSW 4.6 mph - N/A   Overcast
11:35 AM 35.6 °F - 35.6 °F 100% 29.81 in 0.2 mi Calm Calm - N/A   Overcast
11:55 AM 35.6 °F - 35.6 °F 100% 29.80 in 0.2 mi Calm Calm - N/A   Overcast
12:15 PM 35.6 °F 32.8 °F 33.8 °F 93% 29.78 in 0.2 mi South 3.5 mph - N/A   Overcast
12:35 PM 35.6 °F 32.8 °F 35.6 °F 100% 29.78 in 1.8 mi South 3.5 mph - N/A   Overcast
12:55 PM 35.6 °F - 35.6 °F 100% 29.78 in 1.8 mi Calm Calm - N/A   Overcast
1:15 PM 35.6 °F 32.8 °F 33.8 °F 93% 29.78 in 2.5 mi West 3.5 mph - N/A   Overcast
1:35 PM 35.6 °F - 33.8 °F 93% 29.77 in 1.5 mi Calm Calm - N/A   Overcast
1:55 PM 35.6 °F 32.8 °F 35.6 °F 100% 29.77 in 1.2 mi SW 3.5 mph - N/A   Overcast
2:15 PM 35.6 °F 31.7 °F 33.8 °F 93% 29.77 in 1.0 mi SW 4.6 mph - N/A   Overcast
2:35 PM 35.6 °F 32.8 °F 33.8 °F 93% 29.77 in 1.5 mi South 3.5 mph - N/A   Overcast
2:55 PM 35.6 °F 32.8 °F 33.8 °F 93% 29.76 in 1.0 mi SSE 3.5 mph - N/A   Overcast
3:15 PM 33.8 °F 28.6 °F 32.0 °F 93% 29.75 in 0.5 mi SSE 5.8 mph - N/A   Overcast
3:35 PM 33.8 °F 28.6 °F 32.0 °F 93% 29.76 in 0.2 mi South 5.8 mph - N/A   Overcast
3:55 PM 33.8 °F 30.8 °F 33.8 °F 100% 29.74 in 0.2 mi ESE 3.5 mph - N/A   Overcast
4:15 PM 33.8 °F - 33.8 °F 100% 29.74 in 0.2 mi Calm Calm - N/A   Overcast
4:35 PM 33.8 °F - 33.8 °F 100% 29.73 in 0.2 mi Calm Calm - N/A   Overcast
4:55 PM 33.8 °F 28.6 °F 33.8 °F 100% 29.72 in 0.2 mi East 5.8 mph - N/A   Overcast
5:15 PM 33.8 °F 29.6 °F 33.8 °F 100% 29.71 in 0.2 mi NE 4.6 mph - N/A   Overcast
5:35 PM 33.8 °F 29.6 °F 33.8 °F 100% 29.72 in 0.2 mi North 4.6 mph - N/A   Overcast
5:55 PM 33.8 °F 29.6 °F 33.8 °F 100% 29.70 in 0.2 mi NE 4.6 mph - N/A   Overcast
6:15 PM 33.8 °F 27.7 °F 33.8 °F 100% 29.69 in 0.2 mi NE 6.9 mph - N/A   Overcast
6:35 PM 33.8 °F 27.7 °F 33.8 °F 100% 29.69 in 0.5 mi ENE 6.9 mph - N/A   Overcast
6:55 PM 33.8 °F - 33.8 °F 100% 29.70 in 0.5 mi Calm Calm - N/A   Overcast
7:15 PM 33.8 °F 30.8 °F 33.8 °F 100% 29.70 in 1.2 mi NE 3.5 mph - N/A   Overcast
7:35 PM 33.8 °F 27.0 °F 33.8 °F 100% 29.68 in 2.5 mi NNE 8.1 mph - N/A   Overcast
7:55 PM 33.8 °F 29.6 °F 32.0 °F 93% 29.70 in 1.0 mi East 4.6 mph - N/A   Overcast
8:15 PM 33.8 °F 30.8 °F 33.8 °F 100% 29.69 in 0.8 mi ENE 3.5 mph - N/A   Overcast
8:35 PM 33.8 °F 30.8 °F 33.8 °F 100% 29.68 in 1.0 mi NE 3.5 mph - N/A   Overcast
8:55 PM 33.8 °F 30.8 °F 32.0 °F 93% 29.67 in 0.8 mi NE 3.5 mph - N/A   Overcast
9:15 PM 33.8 °F 29.6 °F 32.0 °F 93% 29.67 in 0.5 mi NNE 4.6 mph - N/A   Overcast
9:35 PM 33.8 °F 27.7 °F 33.8 °F 100% 29.66 in 0.5 mi ENE 6.9 mph - N/A   Overcast
9:55 PM 33.8 °F 28.6 °F 32.0 °F 93% 29.66 in 1.2 mi North 5.8 mph - N/A   Overcast
10:15 PM 32.0 °F 24.8 °F 30.2 °F 93% 29.65 in 2.0 mi NNE 8.1 mph - N/A   Overcast
10:35 PM 30.2 °F 21.3 °F 30.2 °F 100% 29.65 in 2.5 mi NNE 10.4 mph - N/A   Overcast
10:55 PM 30.2 °F 19.8 °F 30.2 °F 100% 29.63 in 2.0 mi NNE 13.8 mph - N/A   Overcast
11:15 PM 30.2 °F 18.9 °F 30.2 °F 100% 29.61 in 1.5 mi NNE 16.1 mph 19.6 mph N/A   Overcast
11:35 PM 30.2 °F 19.8 °F 30.2 °F 100% 29.61 in 2.0 mi NNE 13.8 mph - N/A   Overcast
11:55 PM 30.2 °F 20.8 °F 30.2 °F 100% 29.64 in 2.5 mi North 11.5 mph - N/A   Overcast